CZ-2C R/B, 58499

Orbit data source: Space-Track

CZ-2C R/B, 58499 is space debris in SSO originally from a launch on Mon, 04 Dec 2023 UTC launched from the Jiuquan Satellite Launch Center, China (JSC). Debris objects in space refer to the collection of defunct objects orbiting the Earth. Examples of debris include non-operational satellites, rocket bodies, and fragments generated from explosions, collisions, or faulty payload assembly.

Loading next visibility...
Identifier
58499, 2023-187D
Orbit
SSO
Country
Flag of CNCN / PRC
Related business
Manufacturer
CALT
Mission
Spacecraft
Bus & Motor
CZ-2 STAGE 2, Unknown motor
Mass
~3,800 kg wet, ~3,800 kg dry
Launch date (UTC)
2023-12-04 (3 years ago)
Launch vehicle
Unknown
Launch site
Jiuquan Satellite Launch Center, China (JSC)
Object type
Payload
Rocket body
Debris
Shape & HBR
Cyl, 3.7 m
Radar Cross Section
23.715 m², Large (>1 m²)

Expand to show TLE details & history
Last TLE update: 2 days ago

TLE from 2 days ago
0 CZ-2C R/B
1 58499U 23187D   26171.44916936  .00001347  00000-0  13793-3 0  9996
2 58499  98.1253 283.8536 0035024 190.6012 169.4471 14.91872180138301
Epoch: 2026-06-20T10:46Z
TLE epoch observation values (Epoch: 2026-06-20T10:46:48.232Z)
Latitude
-0.00008°
Longitude
-146.51099°
Altitude
619.137 km
Speed
7.536 km/s
True Right ascension
18h 55m 24s
True Declination
0° 00' 00"
Sunlit
Object was in full shadow at epoch
Visualization orbit readout
Latitude
Unknown
Longitude
Unknown
Altitude
Unknown
Speed
Unknown
Apparent Right ascension
Unknown
Apparent Declination
Unknown
Sunlit
N/A
Visualization observer readout
Local Sidereal Time
14:22:22
Azimuth
Unknown
Elevation
Unknown
Doppler factor
Unknown
Orbital elements
Apogee altitude
613.536 km
Perigee altitude
564.731 km
Semi-major axis
6,967.27 km
Eccentricity
0.0035
Inclination
98.1253°
RAAN
283.8536°
Arg. of periapsis
190.6012°
True anomaly
169.52029°
Mean anomaly
169.4471°
Eccentric anomaly
169.48373°
Mean motion
3.73206 °/min
Orbital period
96.46 mins
BSTAR
0.00013793
Loading maneuver chart data...
Computing Atmospheric mass density...
Loading historical data...
Loading historical data...
Loading historical data...
Loading historical data...
Loading historical data...
Loading historical data...
Loading historical data...
Other satellites on launch #187 in the year 2023 (2023-12-04 UTC)

Documentation

Showing up to 5 results
|